TimeCST,TemperatureF,Dew PointF,Humidity,Sea Level PressureIn,VisibilityMPH,Wind Direction,Wind SpeedMPH,Gust SpeedMPH,PrecipitationIn,Events,Conditions,WindDirDegrees,DateUTC
12:15 AM,9.3,-0.2,65,30.41,10.0,NNW,17.3,-,N/A,,Overcast,330,2013-01-21 06:15:00
12:35 AM,8.4,-1.8,63,30.41,10.0,NW,17.3,24.2,N/A,,Overcast,320,2013-01-21 06:35:00
12:55 AM,6.8,-0.9,71,30.41,10.0,NNW,10.4,-,N/A,,Overcast,340,2013-01-21 06:55:00
1:15 AM,5.4,-2.0,72,30.40,10.0,NNW,10.4,-,N/A,,Scattered Clouds,330,2013-01-21 07:15:00
1:35 AM,5.4,-2.4,70,30.40,10.0,NW,9.2,-,N/A,,Scattered Clouds,320,2013-01-21 07:35:00
1:55 AM,5.0,-3.1,69,30.40,10.0,NW,11.5,-,N/A,,Clear,320,2013-01-21 07:55:00
2:15 AM,4.8,-2.9,70,30.40,10.0,NNW,9.2,-,N/A,,Clear,330,2013-01-21 08:15:00
2:35 AM,5.5,-4.0,65,30.41,10.0,NW,13.8,20.7,N/A,,Mostly Cloudy,320,2013-01-21 08:35:00
2:55 AM,4.8,-5.6,62,30.41,10.0,NNW,13.8,24.2,N/A,,Mostly Cloudy,330,2013-01-21 08:55:00
3:15 AM,4.1,-5.8,64,30.41,10.0,NNW,15.0,-,N/A,,Scattered Clouds,340,2013-01-21 09:15:00
3:35 AM,3.9,-6.3,62,30.42,10.0,NNW,13.8,-,N/A,,Clear,340,2013-01-21 09:35:00
3:55 AM,3.6,-6.3,64,30.41,10.0,NNW,12.7,17.3,N/A,,Clear,340,2013-01-21 09:55:00
4:15 AM,3.0,-6.5,65,30.41,10.0,NNW,8.1,18.4,N/A,,Clear,340,2013-01-21 10:15:00
4:35 AM,2.7,-6.3,66,30.41,10.0,NNW,8.1,-,N/A,,Clear,340,2013-01-21 10:35:00
4:55 AM,2.3,-6.2,68,30.41,10.0,NNW,10.4,-,N/A,,Clear,340,2013-01-21 10:55:00
5:15 AM,2.3,-6.0,68,30.40,10.0,North,11.5,-,N/A,,Scattered Clouds,350,2013-01-21 11:15:00
5:35 AM,1.4,-7.4,67,30.40,10.0,NNW,10.4,-,N/A,,Overcast,340,2013-01-21 11:35:00
5:55 AM,1.4,-6.5,69,30.40,10.0,NNW,10.4,-,N/A,,Overcast,340,2013-01-21 11:55:00
6:15 AM,1.8,-8.3,63,30.40,10.0,NNW,11.5,-,N/A,,Scattered Clouds,330,2013-01-21 12:15:00
6:35 AM,1.4,-8.3,64,30.40,10.0,NNW,9.2,17.3,N/A,,Clear,340,2013-01-21 12:35:00
6:55 AM,1.2,-7.8,66,30.40,10.0,NNW,9.2,-,N/A,,Clear,340,2013-01-21 12:55:00
7:15 AM,1.2,-7.4,67,30.41,10.0,NNW,8.1,-,N/A,,Clear,330,2013-01-21 13:15:00
7:35 AM,0.5,-8.0,68,30.41,10.0,NNW,6.9,-,N/A,,Scattered Clouds,330,2013-01-21 13:35:00
7:55 AM,0.3,-8.1,68,30.40,10.0,NNW,8.1,-,N/A,,Scattered Clouds,330,2013-01-21 13:55:00
8:15 AM,1.0,-7.8,66,30.40,10.0,NW,6.9,-,N/A,,Scattered Clouds,320,2013-01-21 14:15:00
8:35 AM,1.2,-7.8,66,30.41,10.0,NNW,6.9,-,N/A,,Scattered Clouds,330,2013-01-21 14:35:00
8:55 AM,1.4,-7.8,65,30.41,10.0,NW,6.9,-,N/A,,Clear,310,2013-01-21 14:55:00
9:15 AM,2.1,-7.2,65,30.41,10.0,NW,5.8,-,N/A,,Scattered Clouds,320,2013-01-21 15:15:00
9:35 AM,3.0,-7.1,63,30.42,10.0,NW,8.1,-,N/A,,Mostly Cloudy,310,2013-01-21 15:35:00
9:55 AM,3.9,-6.7,61,30.42,10.0,NW,8.1,-,N/A,,Mostly Cloudy,320,2013-01-21 15:55:00
10:15 AM,4.1,-7.8,58,30.41,10.0,NNW,10.4,-,N/A,,Mostly Cloudy,330,2013-01-21 16:15:00
10:35 AM,5.4,-7.1,57,30.41,10.0,NNW,10.4,-,N/A,,Scattered Clouds,330,2013-01-21 16:35:00
10:55 AM,6.3,-6.9,55,30.41,10.0,WNW,12.7,-,N/A,,Clear,300,2013-01-21 16:55:00
11:15 AM,6.8,-7.1,53,30.41,10.0,NW,12.7,-,N/A,,Scattered Clouds,320,2013-01-21 17:15:00
11:35 AM,6.3,-7.8,53,30.42,10.0,NW,10.4,-,N/A,,Scattered Clouds,320,2013-01-21 17:35:00
11:55 AM,6.4,-7.6,53,30.41,10.0,NNW,13.8,-,N/A,,Clear,330,2013-01-21 17:55:00
12:15 PM,7.3,-6.9,52,30.39,10.0,NNW,10.4,16.1,N/A,,Scattered Clouds,330,2013-01-21 18:15:00
12:35 PM,7.7,-6.5,52,30.39,10.0,NW,9.2,16.1,N/A,,Scattered Clouds,320,2013-01-21 18:35:00
12:55 PM,8.1,-6.3,52,30.38,10.0,NW,9.2,-,N/A,,Clear,310,2013-01-21 18:55:00
1:15 PM,9.3,-5.4,51,30.37,10.0,NW,8.1,23.0,N/A,,Clear,320,2013-01-21 19:15:00
1:35 PM,10.0,-5.1,51,30.36,10.0,NNW,12.7,18.4,N/A,,Clear,330,2013-01-21 19:35:00
1:55 PM,10.2,-5.3,50,30.36,10.0,NNW,12.7,17.3,N/A,,Scattered Clouds,330,2013-01-21 19:55:00
2:15 PM,11.1,-4.5,49,30.35,10.0,NNW,10.4,-,N/A,,Mostly Cloudy,330,2013-01-21 20:15:00
2:35 PM,12.0,-4.2,48,30.34,10.0,NW,8.1,-,N/A,,Scattered Clouds,320,2013-01-21 20:35:00
2:55 PM,10.9,-4.0,51,30.34,10.0,NW,11.5,-,N/A,,Clear,320,2013-01-21 20:55:00
3:15 PM,10.6,-3.5,53,30.34,10.0,NNW,9.2,-,N/A,,Clear,340,2013-01-21 21:15:00
3:35 PM,10.4,-3.1,55,30.34,10.0,NNW,9.2,-,N/A,,Mostly Cloudy,340,2013-01-21 21:35:00
3:55 PM,10.2,-2.6,56,30.34,10.0,North,6.9,-,N/A,,Mostly Cloudy,350,2013-01-21 21:55:00
4:15 PM,10.0,-2.0,58,30.34,10.0,North,6.9,-,N/A,,Overcast,350,2013-01-21 22:15:00
4:35 PM,10.0,-1.3,60,30.33,10.0,NNW,6.9,-,N/A,,Overcast,340,2013-01-21 22:35:00
4:55 PM,9.9,-0.6,63,30.33,10.0,NNW,5.8,-,N/A,,Overcast,330,2013-01-21 22:55:00
5:15 PM,9.5,-0.0,65,30.33,10.0,North,5.8,-,N/A,,Mostly Cloudy,350,2013-01-21 23:15:00
5:35 PM,9.5,0.5,67,30.33,10.0,North,5.8,-,N/A,,Scattered Clouds,350,2013-01-21 23:35:00
5:55 PM,9.0,0.3,68,30.34,10.0,North,5.8,-,N/A,,Mostly Cloudy,350,2013-01-21 23:55:00
6:15 PM,8.6,0.5,70,30.33,10.0,NNW,4.6,-,N/A,,Overcast,340,2013-01-22 00:15:00
6:35 PM,8.6,0.3,69,30.33,10.0,North,5.8,-,N/A,,Overcast,360,2013-01-22 00:35:00
6:55 PM,8.4,0.1,69,30.33,10.0,North,3.5,-,N/A,,Mostly Cloudy,360,2013-01-22 00:55:00
7:15 PM,8.4,0.5,70,30.33,10.0,Calm,Calm,-,N/A,,Overcast,0,2013-01-22 01:15:00
7:35 PM,8.6,0.5,70,30.34,10.0,NNW,3.5,-,N/A,,Overcast,340,2013-01-22 01:35:00
7:55 PM,8.2,0.5,71,30.33,10.0,NW,3.5,-,N/A,,Overcast,310,2013-01-22 01:55:00
8:15 PM,8.2,0.3,70,30.33,10.0,NNW,3.5,-,N/A,,Overcast,340,2013-01-22 02:15:00
8:35 PM,8.4,0.3,70,30.33,10.0,Calm,Calm,-,N/A,,Overcast,0,2013-01-22 02:35:00
8:55 PM,7.9,0.5,72,30.33,10.0,Calm,Calm,-,N/A,,Scattered Clouds,0,2013-01-22 02:55:00
9:15 PM,8.1,0.5,71,30.33,10.0,Calm,Calm,-,N/A,,Mostly Cloudy,0,2013-01-22 03:15:00
9:35 PM,8.2,0.5,71,30.33,10.0,Calm,Calm,-,N/A,,Overcast,0,2013-01-22 03:35:00
9:55 PM,7.7,0.1,71,30.33,10.0,Calm,Calm,-,N/A,,Mostly Cloudy,0,2013-01-22 03:55:00
10:15 PM,7.7,0.5,72,30.32,10.0,Calm,Calm,-,N/A,,Scattered Clouds,0,2013-01-22 04:15:00
10:35 PM,7.3,1.0,75,30.33,10.0,Calm,Calm,-,N/A,,Mostly Cloudy,0,2013-01-22 04:35:00
10:55 PM,8.1,1.0,73,30.32,10.0,Calm,Calm,-,N/A,,Scattered Clouds,0,2013-01-22 04:55:00
11:15 PM,8.4,1.0,72,30.32,10.0,Calm,Calm,-,N/A,,Clear,0,2013-01-22 05:15:00
11:35 PM,8.6,0.7,70,30.32,10.0,Calm,Calm,-,N/A,,Clear,0,2013-01-22 05:35:00
11:55 PM,9.0,1.4,71,30.32,10.0,Calm,Calm,-,N/A,,Scattered Clouds,0,2013-01-22 05:55:00